| time (UTC) | temp C | wind direction | speed KPH | gust KPH | rain 1hr cm | rain 24hr cm | rain mn cm | humidity % | barometer mb |
| 20260507172449 | 15 | 191 | 9.7 | 11.3 | 0.00 | 0.00 | 0.00 | 48 | 1021.1 |
| 20260507171856 | 15 | 164 | 1.6 | 9.7 | 0.00 | 0.00 | 0.00 | 49 | 1021.1 |
| 20260507171250 | 15 | 191 | 0.0 | 1.6 | 0.00 | 0.00 | 0.00 | 48 | 1021.1 |
| 20260507170700 | 15 | 191 | 0.0 | 1.6 | 0.00 | 0.00 | 0.00 | 49 | 1021.1 |
| 20260507170311 | 14 | 145 | 0.0 | 9.7 | 0.00 | 0.00 | 0.00 | 49 | 1021.1 |
| 20260507165441 | 14 | 185 | 0.0 | 1.6 | 0.00 | 0.00 | 0.00 | 48 | 1021.4 |
| 20260507165131 | 13 | 195 | 0.0 | 9.7 | 0.00 | 0.00 | 0.00 | 50 | 1021.1 |
| 20260507164532 | 13 | 178 | 0.0 | 3.2 | 0.00 | 0.00 | 0.00 | 53 | 1021.4 |
| 20260507163655 | 13 | 189 | 1.6 | 3.2 | 0.00 | 0.00 | 0.00 | 49 | 1021.4 |
| 20260507163111 | 13 | 166 | 0.0 | 1.6 | 0.00 | 0.00 | 0.00 | 52 | 1021.7 |
| 20260507162454 | 13 | 172 | 0.0 | 12.9 | 0.00 | 0.00 | 0.00 | 52 | 1021.4 |
| 20260507161849 | 12 | 223 | 11.3 | 12.9 | 0.00 | 0.00 | 0.00 | 53 | 1021.7 |
| 20260507161303 | 12 | 223 | 0.0 | 1.6 | 0.00 | 0.00 | 0.00 | 53 | 1021.7 |
| 20260507160643 | 12 | 148 | 0.0 | 1.6 | 0.00 | 0.00 | 0.00 | 54 | 1021.4 |
| 20260507160040 | 11 | 194 | 0.0 | 11.3 | 0.00 | 0.00 | 0.00 | 56 | 1021.7 |
| 20260507155459 | 11 | 154 | 6.4 | 14.5 | 0.00 | 0.00 | 0.00 | 55 | 1021.7 |
| 20260507154935 | 11 | 164 | 8.0 | 14.5 | 0.00 | 0.00 | 0.00 | 55 | 1021.7 |
| 20260507154345 | 11 | 149 | 0.0 | 9.7 | 0.00 | 0.00 | 0.00 | 55 | 1021.7 |
| 20260507154008 | 10 | 180 | 0.0 | 9.7 | 0.00 | 0.00 | 0.00 | 58 | 1021.7 |
| 20260507153149 | 10 | 159 | 0.0 | 3.2 | 0.00 | 0.00 | 0.00 | 58 | 1021.7 |
| 20260507152559 | 10 | 145 | 0.0 | 12.9 | 0.00 | 0.00 | 0.00 | 58 | 1022.4 |
| 20260507152052 | 11 | 176 | 11.3 | 12.9 | 0.00 | 0.00 | 0.00 | 57 | 1021.7 |
| 20260507151930 | 10 | 197 | 1.6 | 4.8 | 0.00 | 0.00 | 0.00 | 58 | 1022.1 |
| 20260507150851 | 10 | 136 | 0.0 | 6.4 | 0.00 | 0.00 | 0.00 | 58 | 1022.1 |
| 20260507150250 | 10 | 152 | 0.0 | 6.4 | 0.00 | 0.00 | 0.00 | 58 | 1022.1 |
| 20260507145654 | 10 | 199 | 0.0 | 0.0 | 0.00 | 0.00 | 0.00 | 59 | 1022.4 |
| 20260507145050 | 10 | 163 | 0.0 | 4.8 | 0.00 | 0.00 | 0.00 | 60 | 1022.1 |
| 20260507144511 | 9 | 138 | 0.0 | 0.0 | 0.00 | 0.00 | 0.00 | 63 | 1022.1 |
| 20260507143854 | 9 | 149 | 0.0 | 0.0 | 0.00 | 0.00 | 0.00 | 62 | 1022.1 |
| 20260507143308 | 8 | 147 | 0.0 | 0.0 | 0.00 | 0.00 | 0.00 | 64 | 1022.4 |
| 20260507142943 | 8 | 132 | 0.0 | 0.0 | 0.00 | 0.00 | 0.00 | 65 | 1022.1 |
| 20260507142140 | 8 | 135 | 0.0 | 1.6 | 0.00 | 0.00 | 0.00 | 66 | 1022.1 |
| 20260507141613 | 8 | 16 | 0.0 | 1.6 | 0.00 | 0.00 | 0.00 | 65 | 1022.4 |
| 20260507141013 | 8 | 6 | 0.0 | 0.0 | 0.00 | 0.00 | 0.00 | 66 | 1022.8 |
| 20260507140354 | 8 | 6 | 0.0 | 0.0 | 0.00 | 0.00 | 0.00 | 74 | 1022.4 |
| 20260507135754 | 7 | 6 | 0.0 | 0.0 | 0.00 | 0.00 | 0.00 | 79 | 1022.4 |
| 20260507135151 | 6 | 6 | 0.0 | 0.0 | 0.00 | 0.00 | 0.00 | 83 | 1022.8 |
| 20260507134551 | 6 | 7 | 0.0 | 0.0 | 0.00 | 0.00 | 0.00 | 86 | 1022.8 |
| 20260507133954 | 5 | 7 | 0.0 | 0.0 | 0.00 | 0.00 | 0.00 | 89 | 1022.8 |
| 20260507133354 | 5 | 7 | 0.0 | 0.0 | 0.00 | 0.00 | 0.00 | 90 | 1022.4 |
| 20260507132754 | 5 | 7 | 0.0 | 0.0 | 0.00 | 0.00 | 0.00 | 91 | 1022.4 |
| 20260507132135 | 4 | 7 | 0.0 | 0.0 | 0.00 | 0.00 | 0.00 | 91 | 1022.8 |
| 20260507131559 | 3 | 8 | 0.0 | 0.0 | 0.00 | 0.00 | 0.00 | 91 | 1022.4 |
| 20260507131003 | 3 | 8 | 0.0 | 0.0 | 0.00 | 0.00 | 0.00 | 91 | 1022.4 |
| 20260507130411 | 3 | 8 | 0.0 | 0.0 | 0.00 | 0.00 | 0.00 | 91 | 1022.4 |
| 20260507125746 | 3 | 8 | 0.0 | 0.0 | 0.00 | 0.00 | 0.00 | 91 | 1022.4 |
| 20260507125151 | 2 | 8 | 0.0 | 0.0 | 0.00 | 0.00 | 0.00 | 90 | 1022.1 |
| 20260507124627 | 2 | 8 | 0.0 | 0.0 | 0.00 | 0.00 | 0.00 | 90 | 1022.4 |
| 20260507124052 | 2 | 8 | 0.0 | 0.0 | 0.00 | 0.00 | 0.00 | 90 | 1022.4 |
| 20260507123717 | 2 | 8 | 0.0 | 0.0 | 0.00 | 0.00 | 0.00 | 90 | 1022.4 |
| 20260507122854 | 1 | 8 | 0.0 | 0.0 | 0.00 | 0.00 | 0.00 | 90 | 1022.1 |
| 20260507122525 | 1 | 8 | 0.0 | 0.0 | 0.00 | 0.00 | 0.00 | 90 | 1022.1 |
| 20260507121912 | 1 | 8 | 0.0 | 3.2 | 0.00 | 0.00 | 0.00 | 90 | 1022.1 |
| 20260507121054 | 2 | 8 | 0.0 | 0.0 | 0.00 | 0.00 | 0.00 | 89 | 1022.1 |
| 20260507120453 | 2 | 7 | 0.0 | 0.0 | 0.00 | 0.00 | 0.00 | 89 | 1022.1 |
| 20260507115846 | 2 | 7 | 0.0 | 0.0 | 0.00 | 0.00 | 0.00 | 89 | 1022.1 |
| 20260507115513 | 2 | 8 | 0.0 | 0.0 | 0.00 | 0.00 | 0.00 | 89 | 1022.1 |
| 20260507114751 | 3 | 8 | 0.0 | 0.0 | 0.00 | 0.00 | 0.00 | 89 | 1021.7 |
| 20260507114152 | 3 | 8 | 0.0 | 0.0 | 0.00 | 0.00 | 0.00 | 89 | 1021.7 |
| 20260507113551 | 3 | 8 | 0.0 | 0.0 | 0.00 | 0.00 | 0.00 | 89 | 1021.4 |
| 20260507112952 | 3 | 8 | 0.0 | 0.0 | 0.00 | 0.00 | 0.00 | 88 | 1021.7 |
| 20260507112616 | 3 | 8 | 0.0 | 0.0 | 0.00 | 0.00 | 0.00 | 88 | 1021.7 |
| 20260507111757 | 3 | 8 | 0.0 | 0.0 | 0.00 | 0.00 | 0.00 | 88 | 1021.4 |
| 20260507111154 | 3 | 8 | 0.0 | 0.0 | 0.00 | 0.00 | 0.00 | 88 | 1021.7 |
| 20260507110605 | 3 | 8 | 0.0 | 0.0 | 0.00 | 0.00 | 0.00 | 88 | 1021.7 |
| 20260507110230 | 3 | 8 | 0.0 | 0.0 | 0.00 | 0.00 | 0.00 | 87 | 1021.4 |
| 20260507105346 | 3 | 8 | 0.0 | 0.0 | 0.00 | 0.00 | 0.00 | 87 | 1021.7 |
| 20260507104741 | 3 | 8 | 0.0 | 0.0 | 0.00 | 0.00 | 0.00 | 87 | 1021.7 |
| 20260507104633 | 3 | 8 | 0.0 | 0.0 | 0.00 | 0.00 | 0.00 | 87 | 1021.4 |
| 20260507103608 | 3 | 8 | 0.0 | 0.0 | 0.00 | 0.00 | 0.00 | 86 | 1021.4 |
| 20260507103201 | 3 | 8 | 0.0 | 0.0 | 0.00 | 0.00 | 0.00 | 86 | 1021.4 |
| 20260507102353 | 3 | 8 | 0.0 | 0.0 | 0.00 | 0.00 | 0.00 | 86 | 1021.4 |
| 20260507101754 | 3 | 8 | 0.0 | 0.0 | 0.00 | 0.00 | 0.00 | 85 | 1021.4 |
| 20260507101146 | 3 | 8 | 0.0 | 0.0 | 0.00 | 0.00 | 0.00 | 85 | 1021.7 |
| 20260507100551 | 3 | 9 | 0.0 | 0.0 | 0.00 | 0.00 | 0.00 | 85 | 1021.4 |
| 20260507095954 | 3 | 9 | 0.0 | 0.0 | 0.00 | 0.00 | 0.00 | 84 | 1021.4 |
| 20260507095350 | 3 | 9 | 0.0 | 0.0 | 0.00 | 0.00 | 0.00 | 84 | 1021.4 |
| 20260507094743 | 4 | 9 | 0.0 | 0.0 | 0.00 | 0.00 | 0.00 | 83 | 1021.4 |
| 20260507094227 | 4 | 9 | 0.0 | 0.0 | 0.00 | 0.00 | 0.00 | 83 | 1021.7 |
| 20260507093702 | 4 | 9 | 0.0 | 0.0 | 0.00 | 0.00 | 0.00 | 82 | 1021.4 |
| 20260507093105 | 4 | 9 | 0.0 | 0.0 | 0.00 | 0.00 | 0.00 | 82 | 1021.4 |
| 20260507092448 | 4 | 9 | 0.0 | 0.0 | 0.00 | 0.00 | 0.00 | 80 | 1021.4 |
| 20260507091903 | 5 | 9 | 0.0 | 0.0 | 0.00 | 0.00 | 0.00 | 79 | 1021.4 |
| 20260507091253 | 5 | 9 | 0.0 | 0.0 | 0.00 | 0.00 | 0.00 | 78 | 1021.4 |
| 20260507090722 | 5 | 9 | 0.0 | 0.0 | 0.00 | 0.00 | 0.00 | 77 | 1021.4 |
| 20260507090152 | 5 | 9 | 0.0 | 0.0 | 0.00 | 0.00 | 0.00 | 76 | 1021.7 |
| 20260507085551 | 5 | 9 | 0.0 | 0.0 | 0.00 | 0.00 | 0.00 | 75 | 1021.4 |
| 20260507085217 | 5 | 9 | 0.0 | 0.0 | 0.00 | 0.00 | 0.00 | 75 | 1021.4 |
| 20260507084359 | 5 | 9 | 0.0 | 0.0 | 0.00 | 0.00 | 0.00 | 74 | 1021.1 |
| 20260507083757 | 5 | 9 | 0.0 | 0.0 | 0.00 | 0.00 | 0.00 | 74 | 1021.4 |
| 20260507083412 | 6 | 9 | 0.0 | 0.0 | 0.00 | 0.00 | 0.00 | 74 | 1021.4 |
| 20260507082601 | 6 | 9 | 0.0 | 1.6 | 0.00 | 0.00 | 0.00 | 73 | 1021.4 |
| 20260507082017 | 6 | 29 | 0.0 | 1.6 | 0.00 | 0.00 | 0.00 | 72 | 1021.7 |
| 20260507081353 | 6 | 60 | 0.0 | 1.6 | 0.00 | 0.00 | 0.00 | 72 | 1021.1 |
| 20260507080753 | 6 | 72 | 0.0 | 1.6 | 0.00 | 0.00 | 0.00 | 72 | 1021.1 |
| 20260507080419 | 6 | 84 | 0.0 | 6.4 | 0.00 | 0.00 | 0.00 | 72 | 1020.7 |
| 20260507075545 | 6 | 60 | 1.6 | 11.3 | 0.00 | 0.00 | 0.00 | 72 | 1020.7 |
| 20260507074952 | 6 | 86 | 3.2 | 11.3 | 0.00 | 0.00 | 0.00 | 73 | 1020.7 |
| 20260507074350 | 6 | 109 | 3.2 | 17.7 | 0.00 | 0.00 | 0.00 | 73 | 1020.7 |
| 20260507073756 | 6 | 105 | 1.6 | 17.7 | 0.00 | 0.00 | 0.00 | 73 | 1020.7 |
| 20260507073411 | 6 | 71 | 6.4 | 12.9 | 0.00 | 0.00 | 0.00 | 74 | 1021.1 |
| 20260507072551 | 6 | 106 | 3.2 | 22.5 | 0.00 | 0.00 | 0.00 | 74 | 1021.4 |
| 20260507071953 | 6 | 16 | 8.0 | 22.5 | 0.00 | 0.00 | 0.00 | 74 | 1021.7 |
| 20260507071342 | 6 | 31 | 0.0 | 4.8 | 0.00 | 0.00 | 0.00 | 75 | 1021.4 |
| 20260507070750 | 6 | 23 | 1.6 | 4.8 | 0.00 | 0.00 | 0.00 | 75 | 1021.7 |
| 20260507070153 | 6 | 83 | 0.0 | 3.2 | 0.00 | 0.00 | 0.00 | 75 | 1021.7 |
| 20260507065549 | 6 | 17 | 0.0 | 3.2 | 0.00 | 0.00 | 0.00 | 75 | 1022.1 |
| 20260507064952 | 6 | 16 | 0.0 | 6.4 | 0.00 | 0.00 | 0.00 | 74 | 1022.1 |
| 20260507064353 | 6 | 8 | 0.0 | 11.3 | 0.00 | 0.00 | 0.00 | 74 | 1021.7 |
| 20260507063749 | 6 | 18 | 4.8 | 11.3 | 0.00 | 0.00 | 0.00 | 73 | 1022.1 |
| 20260507063621 | 7 | 20 | 6.4 | 11.3 | 0.00 | 0.00 | 0.00 | 73 | 1021.7 |
| 20260507062546 | 7 | 22 | 0.0 | 6.4 | 0.00 | 0.00 | 0.00 | 72 | 1022.1 |
| 20260507061947 | 7 | 25 | 0.0 | 14.5 | 0.00 | 0.00 | 0.00 | 72 | 1022.1 |
| 20260507061345 | 7 | 5 | 8.0 | 14.5 | 0.00 | 0.00 | 0.00 | 71 | 1021.7 |
| 20260507060750 | 7 | 4 | 0.0 | 12.9 | 0.00 | 0.00 | 0.00 | 71 | 1022.1 |
| 20260507060152 | 7 | 347 | 3.2 | 22.5 | 0.00 | 0.00 | 0.00 | 71 | 1021.7 |
| 20260507055548 | 7 | 17 | 12.9 | 20.9 | 0.00 | 0.00 | 0.00 | 72 | 1022.1 |
| 20260507054958 | 7 | 355 | 0.0 | 14.5 | 0.00 | 0.00 | 0.00 | 72 | 1022.1 |
| 20260507054839 | 7 | 349 | 9.7 | 14.5 | 0.00 | 0.00 | 0.00 | 71 | 1021.7 |
| 20260507053747 | 7 | 0 | 3.2 | 16.1 | 0.00 | 0.00 | 0.00 | 71 | 1021.7 |
| 20260507053148 | 7 | 8 | 9.7 | 16.1 | 0.00 | 0.00 | 0.00 | 71 | 1021.4 |
| 20260507052550 | 7 | 8 | 12.9 | 16.1 | 0.00 | 0.00 | 0.00 | 70 | 1021.7 |
| 20260507051953 | 7 | 11 | 3.2 | 22.5 | 0.00 | 0.00 | 0.00 | 69 | 1021.4 |
| 20260507051350 | 7 | 9 | 16.1 | 22.5 | 0.00 | 0.00 | 0.00 | 68 | 1021.4 |
| 20260507050750 | 8 | 7 | 14.5 | 20.9 | 0.00 | 0.00 | 0.00 | 67 | 1021.4 |
| 20260507050154 | 7 | 10 | 11.3 | 20.9 | 0.00 | 0.00 | 0.00 | 67 | 1021.4 |
| 20260507045549 | 8 | 359 | 14.5 | 22.5 | 0.00 | 0.00 | 0.00 | 66 | 1021.4 |
| 20260507045212 | 8 | 2 | 9.7 | 25.7 | 0.00 | 0.00 | 0.00 | 66 | 1021.4 |
| 20260507044337 | 8 | 52 | 9.7 | 20.9 | 0.00 | 0.00 | 0.00 | 65 | 1021.4 |
| 20260507043736 | 8 | 9 | 8.0 | 22.5 | 0.00 | 0.00 | 0.00 | 65 | 1021.1 |
| 20260507043207 | 8 | 2 | 1.6 | 22.5 | 0.00 | 0.00 | 0.00 | 65 | 1021.1 |
| 20260507042636 | 8 | 15 | 16.1 | 22.5 | 0.00 | 0.00 | 0.00 | 65 | 1020.7 |
| 20260507042237 | 8 | 51 | 12.9 | 22.5 | 0.00 | 0.00 | 0.00 | 66 | 1021.1 |
| 20260507041846 | 8 | 14 | 12.9 | 20.9 | 0.00 | 0.00 | 0.00 | 65 | 1020.4 |
| 20260507041031 | 8 | 50 | 8.0 | 17.7 | 0.00 | 0.00 | 0.00 | 64 | 1020.4 |
| 20260507040148 | 8 | 359 | 9.7 | 24.1 | 0.00 | 0.00 | 0.00 | 63 | 1020.0 |
| 20260507035553 | 9 | 344 | 12.9 | 25.7 | 0.00 | 0.00 | 0.00 | 63 | 1020.4 |
| 20260507034954 | 9 | 6 | 17.7 | 25.7 | 0.00 | 0.00 | 0.00 | 62 | 1020.0 |
| 20260507034833 | 9 | 37 | 0.0 | 25.7 | 0.00 | 0.00 | 0.00 | 62 | 1019.7 |
| 20260507033751 | 9 | 6 | 1.6 | 25.7 | 0.00 | 0.00 | 0.00 | 61 | 1019.4 |
| 20260507033154 | 10 | 10 | 8.0 | 25.7 | 0.00 | 0.00 | 0.00 | 60 | 1019.4 |
| 20260507032545 | 10 | 13 | 6.4 | 20.9 | 0.00 | 0.00 | 0.00 | 60 | 1019.7 |
| 20260507032211 | 10 | 20 | 4.8 | 29.0 | 0.00 | 0.00 | 0.00 | 58 | 1019.4 |
| 20260507031622 | 11 | 348 | 4.8 | 22.5 | 0.00 | 0.00 | 0.00 | 56 | 1019.7 |
| 20260507030747 | 11 | 37 | 14.5 | 22.5 | 0.00 | 0.00 | 0.00 | 55 | 1019.4 |
| 20260507030149 | 12 | 9 | 6.4 | 30.6 | 0.00 | 0.00 | 0.00 | 52 | 1019.4 |
| 20260507025557 | 12 | 21 | 19.3 | 38.6 | 0.00 | 0.00 | 0.00 | 50 | 1019.0 |
| 20260507024951 | 13 | 4 | 8.0 | 33.8 | 0.00 | 0.00 | 0.00 | 48 | 1018.7 |
| 20260507024403 | 13 | 5 | 3.2 | 24.1 | 0.00 | 0.00 | 0.00 | 48 | 1018.7 |
| 20260507023834 | 13 | 62 | 14.5 | 30.6 | 0.00 | 0.00 | 0.00 | 48 | 1018.7 |
| 20260507023248 | 13 | 14 | 22.5 | 30.6 | 0.00 | 0.00 | 0.00 | 47 | 1018.3 |
| 20260507022653 | 13 | 10 | 14.5 | 40.2 | 0.00 | 0.00 | 0.00 | 46 | 1018.0 |
| 20260507022053 | 14 | 6 | 22.5 | 48.3 | 0.00 | 0.00 | 0.00 | 46 | 1017.3 |
| 20260507021451 | 14 | 12 | 16.1 | 48.3 | 0.00 | 0.00 | 0.00 | 45 | 1017.3 |
| 20260507021107 | 15 | 345 | 24.1 | 37.0 | 0.00 | 0.00 | 0.00 | 42 | 1016.7 |
| 20260507020252 | 16 | 5 | 11.3 | 49.9 | 0.00 | 0.00 | 0.00 | 40 | 1016.0 |
| 20260507015653 | 17 | 329 | 33.8 | 49.9 | 0.00 | 0.00 | 0.00 | 37 | 1015.3 |
| 20260507015050 | 20 | 306 | 0.0 | 0.0 | 0.00 | 0.00 | 0.00 | 24 | 1015.0 |
| 20260507014455 | 21 | 298 | 0.0 | 0.0 | 0.00 | 0.00 | 0.00 | 20 | 1014.6 |
| 20260507013910 | 21 | 295 | 0.0 | 0.0 | 0.00 | 0.00 | 0.00 | 20 | 1014.6 |
| 20260507013253 | 21 | 256 | 0.0 | 0.0 | 0.00 | 0.00 | 0.00 | 20 | 1014.6 |
| 20260507012906 | 21 | 241 | 0.0 | 0.0 | 0.00 | 0.00 | 0.00 | 19 | 1014.6 |
| 20260507012054 | 21 | 242 | 0.0 | 0.0 | 0.00 | 0.00 | 0.00 | 19 | 1014.3 |
| 20260507011510 | 21 | 226 | 0.0 | 0.0 | 0.00 | 0.00 | 0.00 | 18 | 1014.3 |
| 20260507010855 | 22 | 226 | 0.0 | 0.0 | 0.00 | 0.00 | 0.00 | 17 | 1014.3 |
| 20260507010517 | 22 | 240 | 0.0 | 0.0 | 0.00 | 0.00 | 0.00 | 16 | 1013.9 |
| 20260507005703 | 22 | 211 | 0.0 | 0.0 | 0.00 | 0.00 | 0.00 | 16 | 1013.9 |
| 20260507005049 | 22 | 245 | 0.0 | 0.0 | 0.00 | 0.00 | 0.00 | 15 | 1013.9 |
| 20260507004513 | 22 | 181 | 0.0 | 9.7 | 0.00 | 0.00 | 0.00 | 16 | 1013.6 |
| 20260507003850 | 22 | 197 | 3.2 | 9.7 | 0.00 | 0.00 | 0.00 | 15 | 1013.9 |
| 20260507003307 | 22 | 205 | 0.0 | 0.0 | 0.00 | 0.00 | 0.00 | 16 | 1013.9 |
| 20260507002642 | 22 | 217 | 0.0 | 0.0 | 0.00 | 0.00 | 0.00 | 15 | 1013.6 |
| 20260507002051 | 22 | 227 | 0.0 | 0.0 | 0.00 | 0.00 | 0.00 | 14 | 1013.3 |
| 20260507001547 | 23 | 205 | 0.0 | 0.0 | 0.00 | 0.00 | 0.00 | 14 | 1013.3 |
| 20260507001450 | 23 | 195 | 0.0 | 0.0 | 0.00 | 0.00 | 0.00 | 14 | 1013.6 |
| 20260507000300 | 23 | 220 | 0.0 | 1.6 | 0.00 | 0.00 | 0.00 | 14 | 1013.6 |
| 20260506235945 | 23 | 253 | 0.0 | 9.7 | 0.00 | 0.00 | 0.00 | 14 | 1013.3 |
| 20260506235204 | 23 | 187 | 1.6 | 9.7 | 0.00 | 0.00 | 0.00 | 13 | 1013.9 |
| 20260506234540 | 23 | 237 | 0.0 | 6.4 | 0.00 | 0.00 | 0.00 | 13 | 1013.3 |
| 20260506233953 | 23 | 227 | 0.0 | 1.6 | 0.00 | 0.00 | 0.00 | 14 | 1013.6 |
| 20260506233339 | 22 | 231 | 0.0 | 12.9 | 0.00 | 0.00 | 0.00 | 14 | 1013.3 |
| 20260506232754 | 23 | 217 | 9.7 | 12.9 | 0.00 | 0.00 | 0.00 | 14 | 1013.6 |
| 20260506232152 | 23 | 238 | 0.0 | 3.2 | 0.00 | 0.00 | 0.00 | 14 | 1013.6 |
| 20260506231549 | 23 | 243 | 0.0 | 3.2 | 0.00 | 0.00 | 0.00 | 13 | 1013.3 |
| 20260506230950 | 23 | 195 | 0.0 | 0.0 | 0.00 | 0.00 | 0.00 | 14 | 1013.6 |
| 20260506230349 | 23 | 220 | 0.0 | 0.0 | 0.00 | 0.00 | 0.00 | 14 | 1013.3 |
| 20260506225757 | 23 | 210 | 0.0 | 1.6 | 0.00 | 0.00 | 0.00 | 14 | 1013.6 |
| 20260506225406 | 24 | 178 | 0.0 | 0.0 | 0.00 | 0.00 | 0.00 | 13 | 1013.6 |
| 20260506224541 | 24 | 211 | 0.0 | 6.4 | 0.00 | 0.00 | 0.00 | 14 | 1013.6 |
| 20260506224001 | 24 | 184 | 0.0 | 1.6 | 0.00 | 0.00 | 0.00 | 13 | 1013.3 |
| 20260506223355 | 24 | 197 | 0.0 | 0.0 | 0.00 | 0.00 | 0.00 | 13 | 1013.6 |
| 20260506222751 | 25 | 183 | 0.0 | 0.0 | 0.00 | 0.00 | 0.00 | 14 | 1013.6 |
| 20260506222154 | 24 | 194 | 0.0 | 6.4 | 0.00 | 0.00 | 0.00 | 14 | 1013.6 |
| 20260506221550 | 25 | 210 | 1.6 | 6.4 | 0.00 | 0.00 | 0.00 | 14 | 1013.6 |
| 20260506221217 | 24 | 201 | 0.0 | 3.2 | 0.00 | 0.00 | 0.00 | 14 | 1013.6 |
| 20260506220343 | 24 | 220 | 1.6 | 3.2 | 0.00 | 0.00 | 0.00 | 15 | 1013.6 |
| 20260506215759 | 23 | 206 | 0.0 | 0.0 | 0.00 | 0.00 | 0.00 | 15 | 1013.9 |
| 20260506215149 | 23 | 161 | 0.0 | 3.2 | 0.00 | 0.00 | 0.00 | 17 | 1013.9 |
| 20260506214550 | 23 | 263 | 0.0 | 4.8 | 0.00 | 0.00 | 0.00 | 16 | 1013.9 |
| 20260506213948 | 24 | 184 | 3.2 | 12.9 | 0.00 | 0.00 | 0.00 | 15 | 1013.9 |
| 20260506213403 | 24 | 206 | 4.8 | 12.9 | 0.00 | 0.00 | 0.00 | 15 | 1013.9 |
| 20260506212811 | 24 | 179 | 0.0 | 4.8 | 0.00 | 0.00 | 0.00 | 16 | 1013.9 |
| 20260506212205 | 23 | 222 | 1.6 | 4.8 | 0.00 | 0.00 | 0.00 | 18 | 1013.9 |
| 20260506211551 | 22 | 196 | 0.0 | 11.3 | 0.00 | 0.00 | 0.00 | 19 | 1013.9 |
| 20260506211002 | 23 | 229 | 0.0 | 14.5 | 0.00 | 0.00 | 0.00 | 20 | 1014.3 |
| 20260506210351 | 22 | 198 | 3.2 | 17.7 | 0.00 | 0.00 | 0.00 | 20 | 1014.3 |
| 20260506205803 | 22 | 209 | 4.8 | 17.7 | 0.00 | 0.00 | 0.00 | 20 | 1014.3 |
| 20260506205250 | 22 | 206 | 0.0 | 11.3 | 0.00 | 0.00 | 0.00 | 20 | 1014.3 |
| 20260506204646 | 22 | 242 | 6.4 | 16.1 | 0.00 | 0.00 | 0.00 | 21 | 1014.6 |
| 20260506204526 | 23 | 201 | 6.4 | 16.1 | 0.00 | 0.00 | 0.00 | 20 | 1015.0 |
| 20260506203511 | 22 | 185 | 0.0 | 17.7 | 0.00 | 0.00 | 0.00 | 21 | 1014.6 |
| 20260506203009 | 22 | 210 | 0.0 | 3.2 | 0.00 | 0.00 | 0.00 | 21 | 1014.3 |
| 20260506202352 | 22 | 141 | 1.6 | 9.7 | 0.00 | 0.00 | 0.00 | 21 | 1014.6 |
| 20260506201752 | 22 | 122 | 0.0 | 11.3 | 0.00 | 0.00 | 0.00 | 23 | 1014.6 |
| 20260506201416 | 21 | 203 | 4.8 | 14.5 | 0.00 | 0.00 | 0.00 | 22 | 1014.6 |
| 20260506200551 | 22 | 206 | 3.2 | 6.4 | 0.00 | 0.00 | 0.00 | 22 | 1015.0 |
| 20260506200016 | 22 | 208 | 0.0 | 1.6 | 0.00 | 0.00 | 0.00 | 22 | 1015.0 |
| 20260506195350 | 22 | 192 | 0.0 | 20.9 | 0.00 | 0.00 | 0.00 | 23 | 1014.6 |
| 20260506194753 | 22 | 197 | 6.4 | 20.9 | 0.00 | 0.00 | 0.00 | 21 | 1014.6 |
| 20260506194153 | 21 | 242 | 0.0 | 1.6 | 0.00 | 0.00 | 0.00 | 23 | 1014.6 |
| 20260506193552 | 22 | 215 | 0.0 | 4.8 | 0.00 | 0.00 | 0.00 | 21 | 1015.3 |
| 20260506193009 | 21 | 205 | 0.0 | 4.8 | 0.00 | 0.00 | 0.00 | 22 | 1014.6 |
| 20260506192612 | 22 | 206 | 0.0 | 0.0 | 0.00 | 0.00 | 0.00 | 22 | 1015.0 |
| 20260506191751 | 22 | 200 | 0.0 | 6.4 | 0.00 | 0.00 | 0.00 | 22 | 1015.3 |
| 20260506191156 | 21 | 218 | 0.0 | 1.6 | 0.00 | 0.00 | 0.00 | 23 | 1015.0 |
| 20260506190545 | 21 | 330 | 0.0 | 6.4 | 0.00 | 0.00 | 0.00 | 26 | 1015.3 |
| 20260506190217 | 20 | 208 | 0.0 | 30.6 | 0.00 | 0.00 | 0.00 | 27 | 1015.3 |
| 20260506185351 | 20 | 212 | 0.0 | 4.8 | 0.00 | 0.00 | 0.00 | 28 | 1015.3 |
| 20260506184749 | 20 | 155 | 0.0 | 6.4 | 0.00 | 0.00 | 0.00 | 31 | 1015.6 |
| 20260506184158 | 21 | 215 | 0.0 | 4.8 | 0.00 | 0.00 | 0.00 | 30 | 1015.6 |
| 20260506183816 | 21 | 193 | 3.2 | 11.3 | 0.00 | 0.00 | 0.00 | 29 | 1015.6 |
| 20260506183047 | 20 | 199 | 0.0 | 17.7 | 0.00 | 0.00 | 0.00 | 30 | 1015.6 |
| 20260506182441 | 20 | 208 | 9.7 | 17.7 | 0.00 | 0.00 | 0.00 | 29 | 1015.6 |
| 20260506181848 | 20 | 209 | 1.6 | 11.3 | 0.00 | 0.00 | 0.00 | 30 | 1015.6 |
| 20260506181505 | 20 | 248 | 0.0 | 12.9 | 0.00 | 0.00 | 0.00 | 29 | 1016.0 |
| 20260506180652 | 21 | 182 | 4.8 | 12.9 | 0.00 | 0.00 | 0.00 | 29 | 1016.0 |
| 20260506180110 | 20 | 216 | 4.8 | 9.7 | 0.00 | 0.00 | 0.00 | 29 | 1016.0 |
| 20260506175451 | 21 | 209 | 0.0 | 3.2 | 0.00 | 0.00 | 0.00 | 30 | 1015.6 |
| 20260506174851 | 20 | 183 | 1.6 | 3.2 | 0.00 | 0.00 | 0.00 | 30 | 1015.6 |
| 20260506174311 | 19 | 193 | 0.0 | 12.9 | 0.00 | 0.00 | 0.00 | 31 | 1015.6 |
| 20260506173652 | 20 | 220 | 0.0 | 3.2 | 0.00 | 0.00 | 0.00 | 32 | 1016.3 |
| 20260506173042 | 20 | 273 | 0.0 | 4.8 | 0.00 | 0.00 | 0.00 | 32 | 1016.3 |